Regional Weather Roundup
Issued by NWS

Home | Current Version | Previous Version | Graphics & Text | Print | Product List | Glossary On
Versions: 1 2 3 4 5 6 7 8 9 10 11 12 13 14 15 16 17 18 19 20 21 22 23 24 25 26 27 28 29 30 31 32 33 34 35 36 37 38 39 40 41 42 43 44 45 46 47 48 49 50
000
ASUS45 KPSR 281200
RWRAZ

ARIZONA HOURLY REGIONAL WEATHER ROUNDUP
NATIONAL WEATHER SERVICE PHOENIX AZ
500 AM MST TUE JUL 28 2015

NOTE: FAIR INDICATES FEW OR NO CLOUDS BELOW 12,000 FEET WITH NO
SIGNIFICANT WEATHER AND/OR OBSTRUCTIONS TO VISIBILITY.

AZZ001>003-036-281300-
NORTHWEST ARIZONA

CITY           SKY/WX    TMP DP  RH WIND       PRES   REMARKS
KINGMAN        CLEAR     72  24  16 E13       29.98S
6HR MIN TEMP:  59; 6HR MAX TEMP:  75;

$$

AZZ004>008-015-016-018-281300-
NORTH CENTRAL ARIZONA

CITY           SKY/WX    TMP DP  RH WIND       PRES   REMARKS
GRAND CANYON   CLEAR     40  21  46 CALM      30.24R
6HR MIN TEMP:  39; 6HR MAX TEMP:  49;

WILLIAMS       CLEAR     48  30  49 S10       30.31R
PRESCOTT       CLEAR     64  40  41 S3        30.12R
6HR MIN TEMP:  61; 6HR MAX TEMP:  71;

FLAGSTAFF      NOT AVBL
PAYSON         MOCLDY    68  48  49 CALM      30.14R
PAGE           CLEAR     71  28  20 CALM      30.05R
6HR MIN TEMP:  70; 6HR MAX TEMP:  85;

$$

AZZ009>014-017-281300-
NORTHEAST ARIZONA

CITY           SKY/WX    TMP DP  RH WIND       PRES   REMARKS
WINSLOW        NOT AVBL
SAINT JOHNS    MOCLDY    63  48  58 S6        30.17R
6HR MIN TEMP:  63; 6HR MAX TEMP:  74;

WINDOW ROCK    MOCLDY    62  41  46 CALM      30.24R
6HR MIN TEMP:  61; 6HR MAX TEMP:  72;

SHOW LOW       CLOUDY    61  45  55 CALM      30.24R
$$

AZZ023-281300-
GREATER PHOENIX AREA

CITY           SKY/WX    TMP DP  RH WIND       PRES   REMARKS
PHOENIX        MOCLDY    90  58  33 W8        29.82R
6HR MIN TEMP:  90; 6HR MAX TEMP:  98;

LUKE AFB       MOCLDY    88  57  35 SW13      29.81R
DEER VALLEY    MOCLDY    87  57  35 CALM      29.85R
6HR MIN TEMP:  87; 6HR MAX TEMP:  93;

SCOTTSDALE     MOCLDY    88  57  34 CALM      29.87R
6HR MIN TEMP:  88; 6HR MAX TEMP:  95;

$$

AZZ027-028-281300-
SOUTHWEST MARICOPA COUNTY AND PINAL COUNTY

CITY           SKY/WX    TMP DP  RH WIND       PRES   REMARKS
CASA GRANDE    PTCLDY    84  57  39 CALM      29.86R
6HR MIN TEMP:  84; 6HR MAX TEMP:  93;

GILA BEND      FAIR      82  57  43 E3        29.82R
6HR MIN TEMP:  82; 6HR MAX TEMP:  93;

$$

AZZ503-504-507>509-281300-
SOUTHEAST ARIZONA

CITY           SKY/WX    TMP DP  RH WIND       PRES   REMARKS
TUCSON         MOCLDY    83  62  49 S6        29.97R
6HR MIN TEMP:  83; 6HR MAX TEMP:  87;

DAVIS-MONTHAN  PTCLDY    80  62  55 SE6       29.96R
6HR MIN TEMP:  80; 6HR MAX TEMP:  85;

NOGALES        CLEAR     67  62  84 CALM      30.07R
6HR MIN TEMP:  67; 6HR MAX TEMP:  74;

SIERRA VISTA   CLEAR     68  57  66 S6        30.12R
6HR MIN TEMP:  68; 6HR MAX TEMP:  75;

SAFFORD        PTCLDY    81  48  31 N8        29.96R
6HR MIN TEMP:  77; 6HR MAX TEMP:  86;

$$

AZZ020-021-025-026-031-281300-
SOUTHWEST ARIZONA

CITY           SKY/WX    TMP DP  RH WIND       PRES   REMARKS
YUMA           NOT AVBL
$$

CAZ031-033-041-043-047-048-061-281300-
SOUTHERN CALIFORNIA

CITY           SKY/WX    TMP DP  RH WIND       PRES   REMARKS
DOWNTOWN L.A.  CLOUDY    68  62  81 CALM      29.88R
6HR MIN TEMP:  66; 6HR MAX TEMP:  68;

L.A. AIRPORT   MOCLDY    67  63  87 CALM      29.88S
6HR MIN TEMP:  66; 6HR MAX TEMP:  68;

SAN DIEGO      PTCLDY    67  60  78 CALM      29.89F
6HR MIN TEMP:  67; 6HR MAX TEMP:  69;

BURBANK        CLEAR     65  61  87 S3        29.89R
6HR MIN TEMP:  65; 6HR MAX TEMP:  73;

ONTARIO        CLEAR     66  59  78 CALM      29.89S
6HR MIN TEMP:  65; 6HR MAX TEMP:  71;

RIVERSIDE      CLEAR     66  59  78 CALM      29.89S
6HR MIN TEMP:  66; 6HR MAX TEMP:  71;

PALM SPRINGS   CLEAR     79  55  43 CALM      29.79R
6HR MIN TEMP:  77; 6HR MAX TEMP:  89;

EL CENTRO NAS  CLEAR     71  46  40 W3        29.77R
6HR MIN TEMP:  71; 6HR MAX TEMP:  87;

IMPERIAL       CLEAR     73  55  53 CALM      29.74R
6HR MIN TEMP:  73; 6HR MAX TEMP:  85;

BLYTHE         CLEAR     82  57  42 S5        29.77R
6HR MIN TEMP:  82; 6HR MAX TEMP:  93;

$$

NVZ020-UTZ003-281300-
SOUTHERN NEVADA-UTAH

CITY           SKY/WX    TMP DP  RH WIND       PRES   REMARKS
LAS VEGAS      NOT AVBL
SALT LAKE CITY CLEAR     55  39  54 W3        30.22R
6HR MIN TEMP:  54; 6HR MAX TEMP:  63;

$$

NMZ009-TXZ055-281300-
NEW MEXICO-WEST TEXAS

CITY           SKY/WX    TMP DP  RH WIND       PRES   REMARKS
ALBUQUERQUE    PTCLDY    73  52  47 E6        30.12R
6HR MIN TEMP:  73; 6HR MAX TEMP:  79;

EL PASO        PTCLDY    79  55  43 S7        30.04R
6HR MIN TEMP:  79; 6HR MAX TEMP:  88;

$$


........................KEY........................
SKY/WX - SKY CONDITION/WEATHER
TMP    - TEMPERATURE IN FAHRENHEIT
DP     - DEW POINT IN FAHRENHEIT
RH     - RELATIVE HUMIDITY IN PERCENT
WIND   - DIRECTION AND SPEED IN MILES PER HOUR (MPH)
VRB    - VARIABLE WIND DIRECTION
PRES   - MEAN SEA LEVEL PRESSURE IN INCHES OF MERCURY
         F - FALLING PRESSURE   R - RISING PRESSURE
         S - STEADY PRESSURE
VSB    - VISIBILITY IN MILES
HX     - HEAT INDEX IN FAHRENHEIT
WCI    - WIND CHILL INDEX IN FAHRENHEIT
TC     - TEMPERATURE IN CELSIUS WHICH IS ALSO KNOWN AS
         TEMPERATURE IN CENTIGRADE
AFB    - AIR FORCE BASE
         LUKE AFB IS LUKE AIR FORCE BASE
         DAVIS-MONTHAN IS DAVIS-MONTHAN AIR FORCE BASE
NAS    - NAVAL AIR STATION
         EL CENTRO NAS IS EL CENTRO NAVAL AIR STATION
N/A    - NOT AVAILABLE



USA.gov is the U.S. government's official web portal to all federal, state and local government web resources and services.